Regional Weather Roundup
Issued by NWS Cleveland, OH

Home | Current Version | Previous Version | Graphics & Text | Print | Product List | Glossary On
Versions: 1 2 3 4 5 6 7 8 9 10 11 12 13 14 15 16 17 18 19 20 21 22 23 24 25 26 27 28 29 30 31 32 33 34 35 36 37 38 39 40 41 42 43 44 45 46 47 48 49 50
000
ASUS41 KCLE 221100
RWRCLE
OHIO REGIONAL WEATHER ROUNDUP
NATIONAL WEATHER SERVICE WILMINGTON, OH
700 AM EDT FRI AUG 22 2014

NOTE: "FAIR" INDICATES FEW OR NO CLOUDS BELOW 12,000 FEET WITH NO
SIGNIFICANT WEATHER AND/OR OBSTRUCTIONS TO VISIBILITY.

OHZ001>008-015>018-024>027-034-035-043-044-221200-
   NORTHWEST OHIO

CITY           SKY/WX    TMP DP  RH WIND       PRES   REMARKS
DEFIANCE       CLOUDY    70  67  90 CALM      29.97S
FINDLAY        FOG       71  70  96 CALM      29.98R VSB<1/4
TOLEDO EXPRESS CLOUDY    70  69  97 SW6       29.98R FOG
TOLEDO METCALF CLOUDY    71  68  90 W5        29.99R
LIMA           CLOUDY    72  69  90 SW7       29.98F
$$

OHZ009>014-019>023-028>033-038-089-221200-
   NORTHEAST OHIO

CITY           SKY/WX    TMP DP  RH WIND       PRES   REMARKS
CLE-HOPKINS    PTCLDY    69  67  93 S6        29.99R
CLE-LAKEFRONT  CLOUDY    73  68  84 S8        29.96R
CUY CO. ARPT   NOT AVBL
LORAIN-ELYRIA  PTCLDY    70  66  87 SW3       29.99R
ASHTABULA      CLOUDY    68  67  96 S5        29.99R
AKRON-CANTON   CLOUDY    70  66  87 SW5       30.00R
WOOSTER        PTCLDY    67  65  93 S3        30.00S FOG
MANSFIELD      FOG       70  70 100 W6        30.01R VSB 3/4
YOUNGSTOWN     FOG       68  67  96 S5        30.00R VSB 1
$$

OHZ042-051>053-060>062-070>072-077>081-221200-
  SOUTHWEST OHIO

CITY           SKY/WX    TMP DP  RH WIND       PRES   REMARKS
CINC-COVINGTON MOCLDY    73  70  90 SW6       30.00R
CINC-LUNKEN    CLOUDY    70  70 100 CALM      30.00R
HAMILTON       CLOUDY    71  70  96 E3        30.01R FOG
DAYTON         NOT AVBL
WRIGHT-PAT AFB NOT AVBL
DAYTON GENERAL LGT RAIN  70  69  97 CALM      30.01R
WILMINGTON     CLOUDY    70  67  90 SW5       30.01R
$$

OHZ036-037-039>041-045>050-054>059-063>069-073>076-082>088-221200-
  CENTRAL AND SOUTHEAST OHIO

CITY           SKY/WX    TMP DP  RH WIND       PRES   REMARKS
COLUMBUS       MOCLDY    70  67  90 CALM      30.00R FOG
OSU AIRPORT    CLOUDY    68  67  96 S3        30.00R FOG
BOLTON FIELD   NOT AVBL
RICKENBACK AFB NOT AVBL
NEWARK         FOG       66  64  93 CALM      30.00R VSB 1/4
MARION         FOG       69  68  96 CALM      30.00R VSB 1/2
LANCASTER      PTCLDY    67  65  93 CALM      30.01R FOG
ZANESVILLE     FOG       69  67  93 S5        30.00S VSB 3/4
NEW PHILLY     CLOUDY    69  69 100 CALM      30.00R FOG
$$


USA.gov is the U.S. government's official web portal to all federal, state and local government web resources and services.